SCP
0 0 0 0 0 0 0 0 0 0 0 0 0 0 0 0 0 0 0 0 0 0 0 0 0 0 0 0 0 0 0 0 0 0 0 0 0 0 0 0 0 0 0
0 0 0 0 0 0 0 0 0 0 0 0 0 0 0 0 0 0 0 0 0 0 0 0 0 0 0 0 0 0 0 0 0 0 0 0 0 0 0 0 0 0 0
0 0 0 0 0 0 0 0 0 0 0 0 0 0 0 0 0 0 0 0 0 0 0 0 0 0 0 0 0 0 0 0 0 0 0 0 0 0 0 0 0 0 0
0 0 0 0 0 0 0 0 0 0 0 0 0 0 0 0 0 0 0 0 0 0 0 0 0 0 0 0 0 0 0 0 0 0 0 0 0 0 0 0 0 0 0
0 0 0 0 0 0 0 0 0 0 0 0 0 0 0 0 0 0 0 0 0 0 0 0 0 0 0 0 0 0 0 0 0 0 0 0 0 0 0 0 0 0 0
0 0 0 0 0 0 0 0 0 0 0 0 0 0 0 0 0 0 0 0 0 0 0 0 0 0 0 0 0 0 0 0 0 0 0 0 0 0 0 0 0 0 0
0 0 0 0 0 0 0 0 0 0 0 0 0 0 0 0 0 0 0 0 0 0 0 0 0 0 0 0 0 0 0 0 0 0 0 0 0 0 0 0 0 0 0
0 0 0 0 0 0 0 0 0 0 0 0 0 0 0 0 0 0 0 0 0 0 0 0 0 0 0 0 0 0 0 0 0 0 0 0 0 0 0 0 0 0 0
0 0 0 0 0 0 0 0 0 0 0 0 0 0 0 0 0 0 0 0 0 0 0 0 0 0 0 0 0 0 0 0 0 0 0 0 0 0 0 0 0 0 0
0 0 0 0 0 0 0 0 0 0 0 0 0 0 0 0 0 0 0 0 0 0 0 0 0 0 0 0 0 0 0 0 0 0 0 0 0 0 0 0 0 0 0
0 0 0 0 0 0 0 0 0 0 0 0 0 0 0 0 0 0 0 0 0 0 0 0 0 0 0 0 0 0 0 0 0 0 0 0 0 0 0 0 0 0 0
0 0 0 0 0 0 0 0 0 0 0 0 0 0 0 0 0 0 0 0 0 0 0 0 0 0 0 0 0 0 0 0 0 0 0 0 0 0 0 0 0 0 0
0 0 0 0 0 0 0 0 0 0 0 0 0 0 0 0 0 0 0 0 0 0 0 0 0 0 0 0 0 0 0 0 0 0 0 0 0 0 0 0 0 0 0
0 0 0 0 0 0 0 0 0 0 0 0 0 0 0 0 0 0 0 0 0 0 0 0 0 0 0 0 0 0 0 0 0 0 0 0 0 0 0 0 0 0 0
0 0 0 0 0 0 0 0 0 0 0 0 0 0 0 0 0 0 0 0 0 0 0 0 0 0 0 0 0 0 0 0 0 0 0 0 0 0 0 0 0 0 0
0 0 0 0 0 0 0 0 0 0 0 0 0 0 0 0 0 0 0 0 0 0 0 0 0 0 0 0 0 0 0 0 0 0 0 0 0 0 0 0 0 0 0
0 0 0 0 0 0 0 0 0 0 0 0 0 0 0 0 0 0 0 0 0 0 0 0 0 0 0 0 0 0 0 0 0 0 0 0 0 0 0 0 0 0 0
0 0 0 0 0 0 0 0 0 0 0 0 0 0 0 0 0 0 0 0 0 0 0 0 0 0 0 0 0 0 0 0 0 0 0 0 0 0 0 0 0 0 0
0 0 0 0 0 0 0 0 0 0 0 0 0 0 0 0 0 0 0 0 0 0 0 0 0 0 0 0 0 0 0 0 0 0 0 0 0 0 0 0 0 0 0
0 0 0 0 0 0 0 0 0 0 0 0 0 0 0 0 0 0 0 0 0 0 0 0 0 0 0 0 0 0 0 0 0 0 0 0 0 0 0 0 0 0 0
0 0 0 0 0 0 0 0 0 0 0 0 0 0 0 0 0 0 0 0 0 0 0 0 0 0 0 0 0 0 0 0 0 0 0 0 0 0 0 0 0 0 0
0 0 0 0 0 0 0 0 0 0 0 0 0 0 0 0 0 0 0 0 0 0 0 0 0 0 0 0 0 0 0 0 0 0 0 0 0 0 0 0 0 0 0
1 1 0 0 0 0 0 0 0 0 0 0 0 0 0 0 0 0 0 0 0 0 0 0 0 0 0 0 0 0 0 0 0 0 0 0 0 0 0 0 0 0 0
1 1 1 0 0 0 0 0 0 0 0 0 0 0 0 0 0 0 0 0 0 0 0 0 0 0 0 0 0 0 0 0 0 0 0 0 0 0 0 0 0 0 0
1 1 1 1 0 0 0 0 0 0 0 0 0 0 0 0 0 0 0 0 0 0 0 0 0 0 0 0 0 0 0 0 0 0 0 0 0 0 0 0 0 0 0
1 1 1 1 0 0 0 0 0 0 0 0 0 0 0 0 0 0 0 0 0 0 0 0 0 0 0 0 0 0 0 0 0 0 0 0 0 0 0 0 0 0 0
Wind_Speed
2 1 1 1 1 1 1 1 1 1 1 1 1 2 2 2 3 3 3 8 9 9 9 10 10 10 10 10 10 9 9 8 8 7 8 8 7 7 7 6 6 6 6
2 2 1 1 1 1 1 1 1 1 0 0 1 1 2 2 3 3 3 5 8 9 9 9 10 10 10 10 10 10 10 9 8 8 8 8 8 8 8 7 7 7 6
3 2 2 1 1 1 1 1 1 1 0 0 1 1 1 1 2 3 3 3 4 7 9 9 10 10 10 11 11 10 10 9 9 8 8 8 8 8 8 8 8 8 7
3 3 2 2 1 1 1 1 1 1 0 0 0 0 0 1 2 3 3 3 3 3 6 9 9 10 11 11 11 11 11 10 9 9 9 9 9 8 8 9 9 8 8
4 3 2 2 2 1 1 1 1 1 1 0 0 0 0 1 1 2 3 4 4 4 4 5 8 9 11 11 11 11 11 10 10 10 10 10 9 9 8 9 9 9 9
3 3 2 2 2 2 1 1 2 1 1 1 0 1 1 1 1 2 3 3 3 4 4 5 4 6 10 11 10 10 10 10 10 10 10 10 9 9 9 9 9 9 9
3 3 2 2 3 3 3 3 2 2 1 1 1 1 2 1 1 1 2 2 2 3 3 4 4 4 4 7 8 9 10 10 10 10 10 10 10 9 9 10 9 9 9
3 3 3 3 3 2 2 3 3 2 1 1 2 1 1 2 2 1 1 1 2 2 3 3 3 3 3 3 4 8 10 10 11 10 10 10 9 9 10 10 10 10 10
3 3 3 3 3 3 3 3 3 4 3 1 1 2 2 2 2 2 1 1 1 2 2 3 3 4 4 3 4 5 8 8 9 10 10 10 9 9 9 10 10 10 10
2 3 3 3 3 2 3 3 3 3 3 2 1 1 2 2 1 1 2 1 2 2 2 3 3 3 3 3 3 4 6 6 7 8 8 8 9 9 10 10 11 11 11
2 2 3 3 3 3 3 3 3 3 3 3 3 2 2 1 2 2 2 2 2 2 2 3 2 2 3 3 3 4 5 5 5 6 6 7 8 9 10 11 11 11 11
1 2 2 2 3 3 3 3 3 4 3 3 3 2 2 2 2 3 3 2 2 2 2 2 3 3 2 3 4 5 6 5 5 5 6 7 8 9 9 10 11 11 11
2 3 3 2 2 3 3 3 3 3 4 4 4 3 3 3 2 3 3 2 2 2 2 2 2 2 2 2 3 6 6 6 6 6 7 7 8 8 8 9 10 10 11
3 3 3 2 3 3 3 2 2 3 3 4 4 4 3 3 3 3 3 2 2 2 2 3 1 2 2 2 3 4 3 5 5 6 6 6 7 7 7 8 7 8 9
3 3 3 2 2 2 2 2 2 3 3 3 3 4 3 3 3 3 3 3 3 2 3 3 2 2 2 2 3 2 2 3 4 4 4 5 5 5 5 6 6 6 7
3 2 2 2 2 2 2 2 2 2 2 3 2 3 3 3 3 3 3 3 3 3 3 2 3 2 2 2 3 3 3 3 4 4 4 5 5 5 5 5 5 6 7
4 3 3 3 3 3 3 2 2 2 3 2 2 3 3 3 2 2 3 3 3 4 4 3 2 2 2 3 2 2 2 2 2 3 4 4 5 5 5 5 5 6 6
4 4 3 3 3 3 3 3 3 3 3 3 3 3 3 2 3 2 2 3 3 4 4 4 2 2 2 2 2 2 2 2 2 3 4 4 5 5 5 5 5 6 6
3 3 3 3 3 3 3 3 3 3 3 3 3 3 3 3 3 3 3 3 3 3 3 3 3 1 1 1 1 1 2 2 2 2 3 4 4 5 5 5 5 5 6
4 4 3 3 3 3 3 2 2 2 3 3 3 4 4 4 4 4 3 3 3 2 2 2 2 1 1 1 1 1 1 1 2 2 2 2 3 4 4 4 4 4 5
5 4 4 3 3 3 3 2 2 2 3 3 3 4 4 4 5 4 3 3 3 3 2 2 2 1 1 1 1 2 2 2 2 2 2 2 2 2 2 3 4 4 4
4 4 4 4 4 3 3 4 3 2 3 3 4 4 3 3 3 3 3 3 4 4 4 3 2 2 3 3 2 2 2 1 2 1 2 2 1 2 2 2 2 3 4
4 4 4 4 4 4 5 5 4 3 3 3 3 3 3 2 2 2 2 2 2 4 5 5 4 4 3 4 3 3 3 3 3 1 1 2 1 2 2 2 2 2 2
4 4 4 4 4 4 5 4 4 3 2 3 3 3 3 3 3 3 2 2 2 2 4 4 4 4 4 4 4 4 4 3 2 1 2 2 2 2 2 2 1 2 2
4 4 3 4 4 4 5 4 3 2 2 2 2 3 3 3 3 2 2 2 2 2 2 3 3 3 3 3 3 2 2 2 2 2 2 2 1 1 1 2 1 2 2
4 4 3 3 4 4 4 4 4 2 1 1 1 2 2 2 2 2 3 3 3 3 2 1 1 2 2 2 2 3 3 3 2 2 2 2 1 1 1 1 1 1 1
Wind_Direction
135 125 120 114 116 113 120 120 114 114 106 127 171 178 186 196 201 203 215 220 219 220 220 214 209 208 207 209 211 211 211 212 210 211 215 220 220 215 212 209 209 208 209
149 143 137 132 133 131 137 142 150 122 115 142 176 182 188 198 214 215 219 225 223 221 220 217 216 216 215 215 215 215 216 218 216 216 219 223 222 219 219 218 216 214 213
158 154 149 159 171 122 116 112 89 94 129 134 164 206 204 217 220 223 221 223 229 228 224 224 222 221 222 223 221 220 219 221 219 219 221 224 224 220 222 221 220 215 212
163 156 161 180 168 126 123 131 116 105 109 134 160 276 240 229 236 230 226 226 226 230 231 229 226 226 227 229 227 225 221 221 222 223 224 226 224 222 222 223 222 218 216
165 162 177 184 161 146 150 168 135 147 162 173 242 300 312 266 256 247 236 233 227 228 231 235 232 231 233 234 233 229 224 222 223 226 227 226 225 221 222 224 222 219 219
167 168 180 179 162 157 165 164 152 148 158 165 44 357 327 295 272 257 253 245 234 233 233 237 240 240 238 237 235 232 231 229 227 227 229 229 227 222 220 223 221 220 222
172 173 188 177 172 175 183 171 156 159 180 137 101 342 324 313 282 264 256 244 243 238 234 236 235 236 242 238 237 236 237 238 234 230 227 227 226 223 221 223 222 220 221
179 184 185 189 183 178 178 175 164 160 186 168 149 132 324 331 320 286 256 236 251 247 241 239 233 229 236 240 241 239 239 239 238 232 226 224 224 225 224 222 221 220 220
178 179 183 185 183 183 194 196 185 181 191 197 175 162 172 236 301 313 281 262 258 242 243 240 231 229 232 237 246 250 249 245 242 237 232 227 225 224 226 226 224 222 220
177 183 186 187 188 189 196 206 196 191 183 197 195 202 193 175 188 298 313 288 267 254 254 250 243 237 235 236 239 246 247 246 244 242 240 233 229 228 228 229 228 225 223
186 190 185 182 191 197 203 201 187 192 196 198 193 185 194 201 195 204 273 302 305 275 265 260 254 246 244 240 241 249 241 247 251 245 243 242 241 238 235 235 233 230 227
199 207 190 189 199 202 206 207 200 195 201 201 199 189 183 184 197 198 228 258 277 280 270 259 252 244 239 240 248 254 244 246 251 252 252 251 251 248 245 244 240 235 232
213 221 207 201 207 211 209 201 198 206 204 202 206 209 208 214 193 188 204 234 254 275 278 260 249 249 248 246 255 254 250 247 244 246 250 254 254 252 251 250 246 239 236
216 214 203 206 215 212 209 197 199 212 207 211 218 213 214 216 204 201 197 198 245 271 266 268 267 246 250 243 248 244 255 250 244 242 247 253 253 252 250 248 245 241 236
206 197 193 195 211 213 204 194 209 217 206 215 221 214 216 217 207 209 205 197 201 245 265 257 255 259 252 237 236 233 248 260 251 245 246 249 249 247 244 242 240 237 231
201 186 190 197 205 213 204 197 214 222 210 225 221 216 223 223 211 207 207 208 208 214 247 249 237 260 262 255 235 231 242 262 259 254 251 248 249 247 244 241 237 235 228
190 195 199 204 202 206 206 201 213 216 215 232 232 221 229 220 214 213 207 207 210 208 237 259 241 253 242 255 260 237 243 242 257 258 259 257 252 248 247 244 238 233 226
191 194 195 200 209 213 209 208 221 226 220 227 238 230 239 227 223 222 214 217 218 214 222 253 256 241 245 254 250 240 252 245 248 257 256 260 257 250 247 243 238 234 227
193 193 192 204 213 216 217 220 222 227 228 232 235 233 239 227 231 227 219 224 229 224 217 230 248 241 258 281 279 265 258 260 260 262 253 251 256 253 248 241 237 231 224
191 196 201 209 213 213 215 219 224 229 235 241 240 237 237 229 228 227 224 225 220 213 210 223 235 242 251 278 266 267 275 259 259 270 276 266 264 258 259 252 241 231 222
198 197 197 207 212 211 217 211 218 230 237 250 251 245 241 229 226 222 223 218 206 202 199 214 233 228 232 236 246 245 254 264 248 239 262 266 269 273 269 261 245 234 217
198 196 202 205 213 225 221 210 207 222 235 243 253 258 252 238 236 233 231 216 202 199 204 203 217 236 244 234 232 233 236 258 269 235 242 262 240 263 273 266 264 238 219
194 201 209 210 218 227 217 213 216 216 232 243 247 256 262 260 245 244 245 228 214 207 199 193 205 227 237 233 222 228 228 235 248 249 225 261 253 258 268 270 243 223 207
198 205 211 214 220 230 216 213 216 210 231 248 251 247 247 260 254 230 219 232 245 240 218 205 210 225 234 234 221 222 226 233 259 242 207 251 261 262 280 273 223 202 201
197 202 206 209 220 235 221 216 199 186 221 259 269 263 250 247 253 217 199 217 245 262 239 201 209 235 243 241 214 200 203 206 242 238 207 230 254 272 277 271 257 190 194
198 198 207 210 213 227 226 213 187 177 200 253 289 293 276 253 238 201 205 210 226 246 260 289 287 291 277 260 212 211 211 212 216 230 197 201 212 217 268 262 272 230 207